Regional Weather Roundup
Issued by NWS Albany, NY

Home | Current Version | Previous Version | Graphics & Text | Print | Product List | Glossary Off
Versions: 1 2 3 4 5 6 7 8 9 10 11 12 13 14 15 16 17 18 19 20 21 22 23 24 25 26 27 28 29 30 31 32 33 34 35 36 37 38 39 40 41 42 43 44 45 46 47 48 49

000
ASUS41 KALY 020410
RWRALY

NEW YORK STATE HOURLY WEATHER ROUNDUP
NATIONAL WEATHER SERVICE ALBANY NY
1200 AM EDT THU OCT 02 2014

NOTE: "FAIR" INDICATES FEW OR NO CLOUDS BELOW 12,000 FEET WITH NO
SIGNIFICANT WEATHER AND/OR NO OBSTRUCTIONS TO VISIBILITY.

NYZ032-033-038>043-046>054-057>066-NYZ062>081-020500-
EAST


CITY           SKY/WX    TMP DP  RH WIND       PRES   REMARKS
ALBANY         CLOUDY    60  58  92 N5        30.13S
GLENS FALLS    CLOUDY   N/A N/A N/A E6        30.13F
POUGHKEEPSIE   CLOUDY    60  58  92 CALM      30.09S
MONTGOMERY     CLOUDY    60  57  89 NE7       30.10S
WHITE PLAINS   CLOUDY    59  55  88 NE3       30.08S
ISLIP          CLOUDY    59  57  93 N8        30.05S
NEW YORK CITY  CLOUDY    61  57  87 NE9       30.08S
CENTRAL PARK   CLOUDY    61  56  83 NE5       30.11R
$$

NYZ005>009-017-018-044>046-055-056-020500-
CENTRAL


CITY           SKY/WX    TMP DP  RH WIND       PRES   REMARKS
FULTON         PTCLDY    59  54  83 SE3       30.10S
SYRACUSE       PTCLDY    56  53  90 E6        30.10S
ROME           CLEAR     55  52  89 CALM      30.13S
ELMIRA         MOCLDY    62  58  86 NE5       30.09S
BINGHAMTON     CLEAR     54  53  97 NE5       30.11S
MONTICELLO     CLOUDY    55  55 100 CALM      30.12F
$$

NYZ026>034-041>043-020500-
NORTH


CITY           SKY/WX    TMP DP  RH WIND       PRES   REMARKS
WATERTOWN      CLEAR     52  47  83 CALM      30.10S HAZE
FORT DRUM      NOT AVBL
MASSENA        CLEAR     54  51  90 E10       30.14F
SARANAC LAKE   CLOUDY    52  51  97 NE3       30.13F FOG
PLATTSBURGH    PTCLDY    53  51  93 NW6       30.15S
$$

NYZ001>004-010>016-019>021-020500-
WEST


CITY           SKY/WX    TMP DP  RH WIND       PRES   REMARKS
NIAGARA FALLS  CLOUDY    60  57  89 E8        30.07S FOG
BUFFALO        CLOUDY    61  57  87 E10       30.07F FOG
DUNKIRK        PTCLDY    53  53 100 CALM      30.05S FOG
JAMESTOWN      CLEAR     57  54  88 E5        30.09R
WELLSVILLE     CLEAR     55  52  89 SE3       30.12S
ROCHESTER      PTCLDY    58  56  93 CALM      30.09F FOG
PENN YAN       MOCLDY    59  57  93 CALM      30.10F FOG
$$

             KEY
       WCI = WIND CHILL INDEX
       VSB = VISIBILITY
       HX  = HEAT INDEX
$$


USA.gov is the U.S. government's official web portal to all federal, state and local government web resources and services.